• In Denmark
  • List of Countries
  • For 7 days
  • Water Temperature
  • Satellite Maps
  • Weather Map
  • Weather Widgets
  • user-avatar
    Login

    Hourly Weather Imphal

    Today, 22 November, Wednesday

    Time Temperature Precipitation Wind Pressure Humidity
    00:00 +15°C° 0 mm 1 mps 692 mmHg 91%
    01:00 +15°C° 0 mm 1 mps 691 mmHg 90%
    02:00 +15°C° 0 mm 1 mps 691 mmHg 90%
    03:00 +15°C° 0 mm 1 mps 691 mmHg 90%
    04:00 +15°C° 0 mm 1 mps 691 mmHg 89%
    05:00 +14°C° 0 mm 1 mps 691 mmHg 89%
    06:00 +14°C° 0 mm 1 mps 691 mmHg 88%
    07:00 +18°C° 0 mm 1 mps 692 mmHg 78%
    08:00 +19°C° 0 mm 0 mps 693 mmHg 68%
    09:00 +22°C° 0 mm 0 mps 693 mmHg 58%
    10:00 +25°C° 0 mm 1 mps 693 mmHg 54%
    11:00 +26°C° 0 mm 1 mps 693 mmHg 50%
    12:00 +28°C° 0 mm 1 mps 693 mmHg 47%
    13:00 +27°C° 0 mm 1 mps 692 mmHg 49%
    14:00 +27°C° 0 mm 1 mps 691 mmHg 51%
    15:00 +27°C° 0 mm 1 mps 691 mmHg 53%
    16:00 +24°C° 0 mm 1 mps 690 mmHg 64%
    17:00 +22°C° 0 mm 1 mps 690 mmHg 75%
    18:00 +17°C° 0 mm 0 mps 690 mmHg 86%
    19:00 +17°C° 0 mm 0 mps 690 mmHg 87%
    20:00 +16°C° 0 mm 0 mps 691 mmHg 89%
    21:00 +16°C° 0 mm 0 mps 691 mmHg 91%
    22:00 +18°C° 0 mm 1 mps 691 mmHg 91%
    23:00 +16°C° 0 mm 1 mps 691 mmHg 91%

    Tomorrow, 23 November, Thursday

    Time Temperature Precipitation Wind Pressure Humidity
    00:00 +16°C° 0 mm 1 mps 691 mmHg 91%
    01:00 +16°C° 0 mm 1 mps 691 mmHg 90%
    02:00 +16°C° 0 mm 1 mps 691 mmHg 90%
    03:00 +16°C° 0 mm 1 mps 690 mmHg 89%
    04:00 +16°C° 0 mm 1 mps 691 mmHg 90%
    05:00 +16°C° 0 mm 1 mps 691 mmHg 91%
    06:00 +16°C° 0 mm 1 mps 691 mmHg 91%
    07:00 +19°C° 0 mm 1 mps 692 mmHg 83%
    08:00 +22°C° 0 mm 1 mps 693 mmHg 74%
    09:00 +24°C° 0 mm 1 mps 694 mmHg 66%
    10:00 +25°C° 0 mm 1 mps 694 mmHg 61%
    11:00 +26°C° 0 mm 1 mps 693 mmHg 57%
    12:00 +27°C° 0 mm 1 mps 693 mmHg 52%
    13:00 +27°C° 0 mm 1 mps 692 mmHg 53%
    14:00 +27°C° 0 mm 1 mps 692 mmHg 55%
    15:00 +26°C° 0 mm 1 mps 691 mmHg 57%
    16:00 +24°C° 0 mm 1 mps 691 mmHg 67%
    17:00 +22°C° 0 mm 1 mps 690 mmHg 77%
    18:00 +17°C° 0 mm 0 mps 690 mmHg 88%
    19:00 +17°C° 0 mm 0 mps 691 mmHg 89%
    20:00 +18°C° 0 mm 1 mps 691 mmHg 90%
    21:00 +18°C° 0 mm 1 mps 692 mmHg 91%
    22:00 +18°C° 0 mm 1 mps 692 mmHg 92%
    23:00 +18°C° 0 mm 1 mps 692 mmHg 92%

    Day after tomorrow, 24 November, Friday

    Time Temperature Precipitation Wind Pressure Humidity
    00:00 +16°C° 0 mm 1 mps 692 mmHg 92%
    01:00 +16°C° 0 mm 1 mps 692 mmHg 92%
    02:00 +16°C° 0 mm 1 mps 691 mmHg 92%
    03:00 +16°C° 0 mm 1 mps 691 mmHg 92%
    04:00 +16°C° 0 mm 1 mps 691 mmHg 92%
    05:00 +16°C° 0 mm 1 mps 692 mmHg 93%
    06:00 +16°C° 0 mm 1 mps 692 mmHg 94%
    07:00 +17°C° 0 mm 0 mps 693 mmHg 86%
    08:00 +20°C° 0 mm 0 mps 693 mmHg 77%
    09:00 +22°C° 0 mm 0 mps 694 mmHg 69%
    10:00 +25°C° 0.1 mm 1 mps 694 mmHg 63%
    11:00 +26°C° 0.1 mm 1 mps 694 mmHg 58%
    12:00 +27°C° 0.1 mm 1 mps 693 mmHg 52%
    13:00 +26°C° 0.1 mm 1 mps 693 mmHg 54%
    14:00 +26°C° 0.1 mm 1 mps 692 mmHg 55%
    15:00 +26°C° 0.1 mm 1 mps 691 mmHg 56%
    16:00 +23°C° 0 mm 1 mps 691 mmHg 66%
    17:00 +19°C° 0 mm 0 mps 691 mmHg 77%
    18:00 +17°C° 0 mm 0 mps 691 mmHg 87%
    19:00 +16°C° 0 mm 0 mps 692 mmHg 88%
    20:00 +16°C° 0 mm 0 mps 692 mmHg 89%
    21:00 +16°C° 0 mm 0 mps 693 mmHg 90%
    22:00 +15°C° 0 mm 0 mps 693 mmHg 90%
    23:00 +15°C° 0 mm 0 mps 693 mmHg 90%

    25 November, Saturday

    Time Temperature Precipitation Wind Pressure Humidity
    00:00 +16°C° 0 mm 1 mps 693 mmHg 90%
    01:00 +16°C° 0 mm 1 mps 692 mmHg 90%
    02:00 +15°C° 0 mm 1 mps 692 mmHg 91%
    03:00 +15°C° 0 mm 1 mps 692 mmHg 91%
    04:00 +15°C° 0 mm 1 mps 692 mmHg 91%
    05:00 +15°C° 0 mm 1 mps 693 mmHg 91%
    06:00 +15°C° 0 mm 1 mps 693 mmHg 92%
    07:00 +18°C° 0 mm 1 mps 694 mmHg 82%
    08:00 +19°C° 0 mm 0 mps 695 mmHg 73%
    09:00 +21°C° 0 mm 0 mps 696 mmHg 64%
    10:00 +24°C° 0 mm 1 mps 695 mmHg 59%
    11:00 +25°C° 0 mm 1 mps 695 mmHg 53%
    12:00 +26°C° 0 mm 1 mps 694 mmHg 47%
    13:00 +26°C° 0 mm 1 mps 694 mmHg 49%
    14:00 +26°C° 0 mm 1 mps 693 mmHg 50%
    15:00 +26°C° 0 mm 1 mps 692 mmHg 52%
    16:00 +23°C° 0 mm 1 mps 692 mmHg 62%
    17:00 +21°C° 0 mm 1 mps 692 mmHg 73%
    18:00 +16°C° 0 mm 0 mps 692 mmHg 84%
    19:00 +16°C° 0 mm 0 mps 693 mmHg 86%
    20:00 +16°C° 0 mm 1 mps 693 mmHg 87%
    21:00 +16°C° 0 mm 1 mps 694 mmHg 88%
    22:00 +16°C° 0 mm 1 mps 694 mmHg 89%
    23:00 +15°C° 0 mm 1 mps 694 mmHg 89%

    26 November, Sunday

    Time Temperature Precipitation Wind Pressure Humidity
    00:00 +15°C° 0 mm 1 mps 694 mmHg 90%
    01:00 +15°C° 0 mm 1 mps 694 mmHg 90%
    02:00 +15°C° 0 mm 1 mps 694 mmHg 91%
    03:00 +15°C° 0 mm 1 mps 694 mmHg 91%
    04:00 +15°C° 0 mm 1 mps 694 mmHg 92%
    05:00 +14°C° 0 mm 1 mps 694 mmHg 92%
    06:00 +14°C° 0 mm 1 mps 694 mmHg 92%
    07:00 +18°C° 0 mm 1 mps 695 mmHg 83%
    08:00 +20°C° 0 mm 1 mps 696 mmHg 74%
    09:00 +23°C° 0 mm 1 mps 697 mmHg 64%
    10:00 +24°C° 0 mm 1 mps 696 mmHg 58%
    11:00 +25°C° 0 mm 1 mps 695 mmHg 53%
    12:00 +27°C° 0 mm 1 mps 695 mmHg 47%
    13:00 +26°C° 0 mm 1 mps 694 mmHg 49%
    14:00 +26°C° 0 mm 1 mps 693 mmHg 51%
    15:00 +26°C° 0 mm 1 mps 693 mmHg 53%
    16:00 +23°C° 0 mm 1 mps 693 mmHg 64%
    17:00 +21°C° 0 mm 1 mps 692 mmHg 76%
    18:00 +18°C° 0 mm 1 mps 692 mmHg 87%
    19:00 +18°C° 0 mm 1 mps 693 mmHg 88%
    20:00 +16°C° 0 mm 1 mps 693 mmHg 89%
    21:00 +16°C° 0 mm 1 mps 694 mmHg 91%
    22:00 +16°C° 0 mm 1 mps 693 mmHg 90%
    23:00 +15°C° 0 mm 1 mps 693 mmHg 90%

    27 November, Monday

    Time Temperature Precipitation Wind Pressure Humidity
    00:00 +15°C° 0 mm 1 mps 693 mmHg 90%
    01:00 +15°C° 0 mm 1 mps 693 mmHg 90%
    02:00 +15°C° 0 mm 1 mps 693 mmHg 90%
    03:00 +14°C° 0 mm 1 mps 693 mmHg 90%
    04:00 +14°C° 0 mm 1 mps 693 mmHg 90%
    05:00 +14°C° 0 mm 1 mps 693 mmHg 91%
    06:00 +14°C° 0 mm 1 mps 693 mmHg 91%
    07:00 +18°C° 0 mm 1 mps 694 mmHg 81%
    08:00 +20°C° 0 mm 1 mps 695 mmHg 71%
    09:00 +23°C° 0 mm 1 mps 695 mmHg 62%
    10:00 +24°C° 0 mm 1 mps 695 mmHg 56%
    11:00 +25°C° 0 mm 1 mps 694 mmHg 50%
    12:00 +26°C° 0 mm 1 mps 694 mmHg 44%
    13:00 +26°C° 0 mm 1 mps 693 mmHg 45%
    14:00 +26°C° 0 mm 1 mps 692 mmHg 47%
    15:00 +25°C° 0 mm 1 mps 692 mmHg 49%
    16:00 +23°C° 0 mm 1 mps 692 mmHg 60%
    17:00 +20°C° 0 mm 1 mps 691 mmHg 72%
    18:00 +16°C° 0 mm 0 mps 691 mmHg 83%
    19:00 +15°C° 0 mm 0 mps 692 mmHg 84%
    20:00 +15°C° 0 mm 0 mps 692 mmHg 85%
    21:00 +15°C° 0 mm 1 mps 692 mmHg 86%
    22:00 +15°C° 0 mm 1 mps 692 mmHg 86%
    23:00 +15°C° 0 mm 1 mps 692 mmHg 87%
    Show more